sat.trackr.live / text

‹ back to catalog

STARLINK-11168 [DTC]

NORAD 60183 · 2024-124A

PAYLOAD ACTIVE UNKNOWN

§ Identity

Operator
Country
US
Launch date
2024-07-03
Launch site
AFETR
Launch vehicle
Mass (kg)
RCS (m²)

Purposes: comms

External: N2YO · Heavens-Above · Gunter

§ Orbital elements

Epoch: 2026-05-25T03:31:14.772000Z

Period
91.74 min
Inclination
53.1587°
Eccentricity
0.0001023
Mean motion
15.69692317 rev/d
Perigee alt
359.1 km
Apogee alt
360.5 km
Semi-major
6,737.9 km
B*
5.6605e-6
RAAN
144.2698°
Arg perigee
98.9751°
Mean anomaly
261.1383°
Rev number
10,973

§ Raw data

STARLINK-11168 [DTC]1 60183U 24124A   26145.14669875  .00000097  00000+0  56605-5 0  99972 60183  53.1587 144.2698 0001023  98.9751 261.1383 15.69692317109731

JSON: /api/v1/satellites/60183 · /tle

For live sub-satellite position, see the globe view (requires WebGL).

§ Visibility from observer

Set your observer location to see the next 7 days of passes ≥ 10°. The values pass through the URL so the page stays shareable.

No JS? Fill the form by hand. The geolocation button needs JavaScript.